Home   Weather   Talkeetna   Past weeks

Flag for USA Past Weather in Talkeetna, Alaska, USA — Yesterday and Last 2 Weeks

30 °F

Partly sunny.

Feels Like: 30 °F
Forecast: 21 / 30 °F
Wind: No wind

Location: Talkeetna Weather Reporting Station

Current Time: Oct 21, 2016 at 2:10:56 PM

Latest Report: Oct 21, 2016 at 12:53 PM

Visibility: 10 mi

Pressure: 29.58 "Hg

Humidity: 75%

Dew Point: 23 °F

Location of TalkeetnaLocation

Past Weather in Talkeetna — Graph


Talkeetna Temperature Yesterday

Maximum temperature yesterday: 35 °F (at 10:53 AM)
Minimum temperature yesterday: 22 °F (at 12:53 AM)
Average temperature yesterday: 31 °F

High & Low Weather Summary for the Past Weeks

High58 °F (Oct 14, 2:53 PM)100% (Oct 20, 10:02 PM)30.25 "Hg (Oct 20, 10:02 PM)
Low20 °F (Oct 8, 8:53 AM)12% (Oct 14, 4:53 PM)28.96 "Hg (Oct 17, 4:53 AM)
Average35 °F58%29.65 "Hg
* Reported Oct 6 12:53 PM — Oct 21 12:53 PM, Talkeetna, Weather by CustomWeather, © 2016

Note: Actual official high and low records may vary slightly from our data, if they occured in-between our weather recording intervals... More about our weather records


Talkeetna Weather History for the Previous 24 Hours

Scroll right to see more
Time TempWeatherWind HumidityBarometerVisibility
12:53 PM
Fri, Oct 21
30 °FPartly sunny.No wind75%29.58 "Hg10 mi
11:53 AM29 °FPartly sunny.No wind79%29.58 "Hg10 mi
10:53 AM27 °FPartly sunny.No wind78%29.58 "Hg10 mi
9:53 AM26 °FBroken clouds.3 mph77%29.57 "Hg10 mi
8:53 AM26 °FPassing clouds.No wind84%29.57 "Hg10 mi
7:53 AM26 °FClear.No wind92%29.57 "Hg10 mi
6:53 AM27 °FPassing clouds.No wind89%29.57 "Hg10 mi
5:53 AM27 °FClear.No wind96%29.58 "Hg10 mi
4:53 AM29 °FPassing clouds.No wind96%29.57 "Hg9 mi
4:00 AM30 °FIce fog.No wind96%29.57 "Hg1 mi
2:53 AM33 °FMostly cloudy.No wind96%29.59 "Hg10 mi
1:53 AM33 °FFog.No wind96%29.59 "Hg4 mi
12:53 AM33 °FLow clouds.No wind96%29.59 "Hg10 mi
11:53 PM
Thu, Oct 20
33 °FLow clouds.No wind96%29.59 "Hg10 mi
10:53 PM33 °FOvercast.No wind96%29.59 "Hg7 mi
10:02 PM32 °FLight snow. Ice fog.No wind100%29.57 "Hg2 mi
9:53 PM33 °FLight snow. Fog.No wind96%29.59 "Hg2 mi
9:03 PM33 °FLight snow. Fog.No wind96%29.57 "Hg1 mi
7:53 PM33 °FLight snow. Fog.No wind96%29.58 "Hg2 mi
7:02 PM33 °FLight snow. Fog.No wind96%29.56 "Hg1 mi
6:53 PM33 °FLight snow. Fog.No wind96%29.57 "Hg1 mi
6:02 PM33 °FLight snow. Fog.No wind96%29.56 "Hg1 mi
5:53 PM33 °FLight snow. Fog.3 mph96%29.57 "Hg1 mi
4:53 PM33 °FLight snow. Fog.No wind96%29.58 "Hg2 mi
3:53 PM33 °FLight snow. Fog.No wind92%29.59 "Hg1 mi
2:53 PM33 °FLight snow. Fog.No wind92%29.59 "Hg1 mi
Weather by CustomWeather, © 2016

See weather overviewHow to use our weather pages